Location: Dackenheim
(49.5215°N, 8.1854°E)
Time: 16:38:05
(UTC+00:00)

FO-29 - Visible Passes

Search period start: 14 March 2026 00:00
Search period end: 24 March 2026 00:00
Orbit: 800 x 1320 km, 98.5° (Epoch: 14 March)

Date Brightness Start Highest point End Pass type
(mag) Time Alt. Az. Time Alt. Az. Time Alt. Az.
14 Mar 11.0 18:30:08 10° NE 18:35:53 23° E 18:41:51 10° SE visible
14 Mar 10.0 20:14:13 10° NNE 20:21:38 88° WNW 20:29:32 10° SSW visible
14 Mar 11.8 22:00:12 10° N 22:05:53 25° NW 22:11:51 10° WSW visible
15 Mar 12.2 04:49:45 10° E 04:53:05 15° NE 04:56:36 10° NNE visible
15 Mar 10.3 19:19:09 10° NNE 19:26:19 47° E 19:33:49 10° S visible
15 Mar 10.8 21:04:19 10° N 21:11:19 49° WNW 21:18:45 10° SW visible
15 Mar 12.4 22:51:20 10° NNW 22:54:48 14° NW 22:58:23 10° WNW visible
16 Mar 11.1 18:24:53 10° NE 18:30:32 22° E 18:36:19 10° SE visible
16 Mar 10.0 20:08:51 10° NNE 20:16:23 88° ESE 20:24:16 10° SSW visible
16 Mar 11.7 21:54:44 10° N 22:00:39 27° NW 22:06:50 10° WSW visible
17 Mar 12.3 04:44:31 10° ENE 04:47:47 15° NE 04:51:14 10° NNE visible
17 Mar 10.3 19:13:50 10° NNE 19:21:01 44° E 19:28:27 10° SSE visible
17 Mar 10.8 20:58:55 10° N 21:06:05 52° WNW 21:13:36 10° SW visible
17 Mar 12.4 22:45:44 10° NNW 22:49:35 15° NW 22:53:33 10° WNW visible
18 Mar 11.1 18:19:39 10° NE 18:25:10 21° E 18:30:47 10° SE visible
18 Mar 10.0 20:03:30 10° NNE 20:11:06 84° ESE 20:19:01 10° SSW visible
18 Mar 11.7 21:49:18 10° N 21:55:25 29° NW 22:01:48 10° WSW visible
19 Mar 12.4 04:39:18 10° ENE 04:42:31 15° NE 04:45:53 10° NNE visible
19 Mar 10.4 19:08:32 10° NNE 19:15:43 42° E 19:23:03 10° SSE visible
19 Mar 10.7 20:53:32 10° N 21:00:50 54° WNW 21:08:25 10° SW visible
19 Mar 12.4 22:40:11 10° NNW 22:44:23 16° NW 22:48:41 10° W visible
20 Mar 11.2 18:14:28 10° NE 18:19:48 20° E 18:25:12 10° SE visible
20 Mar 10.0 19:58:09 10° NNE 20:05:50 80° ESE 20:13:44 10° SSW visible
20 Mar 11.6 21:43:52 10° N 21:50:12 30° WNW 21:56:44 10° WSW visible
21 Mar 12.4 04:34:06 10° ENE 04:37:15 14° NE 04:40:33 10° NNE visible
21 Mar 10.5 19:03:14 10° NNE 19:10:24 40° E 19:17:39 10° SSE visible
21 Mar 10.6 20:48:09 10° N 20:55:36 57° WNW 21:03:14 10° SW visible
21 Mar 12.3 22:34:41 10° N 22:39:10 17° NW 22:43:46 10° W visible
22 Mar 11.3 18:09:17 10° NE 18:14:26 19° E 18:19:35 10° SE visible
22 Mar 10.0 19:52:49 10° NNE 20:00:34 76° ESE 20:08:26 10° S visible
22 Mar 11.6 21:38:28 10° N 21:44:59 32° WNW 21:51:39 10° WSW visible
23 Mar 12.5 04:28:54 10° ENE 04:31:59 14° NE 04:35:13 10° NNE visible
23 Mar 10.5 18:57:58 10° NNE 19:05:05 38° E 19:12:13 10° SSE visible
23 Mar 10.5 20:42:48 10° N 20:50:21 61° WNW 20:58:02 10° SW visible
23 Mar 12.3 22:29:12 10° N 22:33:58 18° NW 22:38:50 10° W visible
